Anchorage Merrill, AK

4:44 AM AKDT on September 22, 2017 (GMT -0800)
Merrill

Weather History for PAMR - January, 2015

Change the Weather History Date:

Friday, January 9, 2015

  Actual Average Record
Temperature  
Mean Temperature 30 °F -  
Max Temperature 34 °F 20 °F 46 °F (2002)
Min Temperature 27 °F 8 °F -17 °F (2007)
Degree Days  
Heating Degree Days 34    
Moisture  
Dew Point 23 °F    
Average Humidity 72    
Maximum Humidity 82    
Minimum Humidity 64    
Precipitation  
Precipitation 0.00 in - - ()
Snow  
Snow 0.00 in - - ()
Snow Depth 3.00 in    
Sea Level Pressure  
Sea Level Pressure 29.81 in    
Wind  
Wind Speed 3 mph (North)    
Max Wind Speed 6 mph    
Max Gust Speed -    
Visibility 10 miles    
Events      
Averages and records for this station are not official NWS values.
T = Trace of Precipitation, MM = Missing Value Source: NWS Daily Summary

Daily Weather History Graph

Daily Weather History Graph

Search for Another Location

Airport or City:

Trip Planner

Search our weather history database for the weather conditions in past years. The results will help you decide how hot, cold, wet, or windy it might be!

Date:

Astronomy

Jan. 09, 2015 Rise Set
Actual Time 10:05 AM AKST 4:07 PM AKST
Civil Twilight 9:07 AM AKST 5:06 PM AKST
Nautical Twilight 8:09 AM AKST 6:03 PM AKST
Astronomical Twilight 7:16 AM AKST 6:56 PM AKST
Moon 10:21 PM AKST (1/9) 11:02 AM AKST (1/9)
Length of Visible Light 7h 58m
Length of Day
6h 01m
Waning Gibbous, 81% of the Moon is Illuminated
Jan 9
Waning Gibbous
Jan 13
Last Quarter
Jan 20
New
Jan 26
First Quarter
Feb 3
Full

Hourly Weather History & Observations

Time (AKST) Temp. Windchill Dew Point Humidity Pressure Visibility Wind Dir Wind Speed Gust Speed Precip Events Conditions
12:53 AM 28.9 °F 23.9 °F 21.0 °F 72% 29.80 in 10.0 mi NW 4.6 mph - N/A   Mostly Cloudy
1:53 AM 30.0 °F 25.2 °F 21.0 °F 69% 29.80 in 10.0 mi North 4.6 mph - N/A   Mostly Cloudy
2:53 AM 30.0 °F 26.5 °F 19.9 °F 66% 29.79 in 10.0 mi East 3.5 mph - N/A   Mostly Cloudy
3:53 AM 28.0 °F - 19.9 °F 72% 29.78 in 10.0 mi Calm Calm - N/A   Mostly Cloudy
4:53 AM 28.0 °F - 21.0 °F 75% 29.78 in 10.0 mi Calm Calm - N/A   Mostly Cloudy
5:53 AM 28.0 °F 24.2 °F 21.9 °F 78% 29.79 in 10.0 mi ENE 3.5 mph - N/A   Mostly Cloudy
6:53 AM 27.0 °F 23.0 °F 21.9 °F 81% 29.78 in 10.0 mi East 3.5 mph - N/A   Overcast
7:53 AM 30.0 °F - 23.0 °F 75% 29.78 in 10.0 mi Calm Calm - N/A   Overcast
8:53 AM 30.9 °F - 21.9 °F 69% 29.79 in 10.0 mi Calm Calm - N/A   Overcast
9:53 AM 30.9 °F 27.5 °F 21.9 °F 69% 29.79 in 10.0 mi North 3.5 mph - N/A   Overcast
10:53 AM 30.9 °F 27.5 °F 23.0 °F 72% 29.80 in 10.0 mi NW 3.5 mph - N/A   Overcast
11:53 AM 32.0 °F - 23.0 °F 69% 29.81 in 10.0 mi Calm Calm - N/A   Overcast
12:53 PM 32.0 °F 26.4 °F 24.1 °F 73% 29.81 in 10.0 mi North 5.8 mph - N/A   Overcast
1:53 PM 32.0 °F - 23.0 °F 69% 29.81 in 10.0 mi Calm Calm - N/A   Overcast
2:53 PM 33.1 °F 28.7 °F 23.0 °F 66% 29.81 in 10.0 mi North 4.6 mph - N/A   Mostly Cloudy
3:53 PM 34.0 °F - 23.0 °F 64% 29.82 in 10.0 mi Calm Calm - N/A   Mostly Cloudy
4:53 PM 33.1 °F 28.7 °F 23.0 °F 66% 29.83 in 10.0 mi NE 4.6 mph - N/A   Overcast
5:53 PM 33.1 °F 30.0 °F 23.0 °F 66% 29.83 in 10.0 mi NNE 3.5 mph - N/A   Overcast
6:53 PM 33.1 °F 30.0 °F 25.0 °F 72% 29.83 in 10.0 mi NNW 3.5 mph - N/A   Overcast
7:53 PM 32.0 °F - 25.0 °F 75% 29.84 in 10.0 mi Calm Calm - N/A   Overcast
8:53 PM 27.0 °F - 21.9 °F 81% 29.85 in 10.0 mi Calm Calm - N/A   Scattered Clouds
9:53 PM 30.9 °F - 24.1 °F 76% 29.86 in 10.0 mi Calm Calm - N/A   Mostly Cloudy
10:53 PM 30.9 °F - 24.1 °F 76% 29.87 in 10.0 mi Calm Calm - N/A   Overcast
11:53 PM 28.9 °F - 24.1 °F 82% 29.88 in 10.0 mi Calm Calm - N/A   Overcast